OE2ATN Weather Reports


Display with metric or nautical units.
time (UTC)temp
F
wind
direction
speed
MPH
gust
MPH
rain 1hr
in
rain 24hr
in
rain mn
in
humidity
%
barometer
mb
20260506102024 67 102 5.0 12.0 0.00 0.00 0.00 43 1013.3
20260506101525 67 92 6.0 12.0 0.00 0.00 0.00 42 1013.5
20260506101024 67 120 1.0 10.0 0.00 0.00 0.00 41 1013.6
20260506100524 68 92 6.0 9.0 0.00 0.00 0.00 41 1013.6
20260506100026 67 52 1.0 13.0 0.00 0.00 0.00 40 1013.5
20260506095523 67 89 6.0 13.0 0.00 0.00 0.00 41 1013.6
20260506095023 67 100 5.0 10.0 0.00 0.00 0.00 42 1013.6
20260506094523 66 121 5.0 9.0 0.00 0.00 0.00 42 1013.8
20260506094024 66 135 6.0 10.0 0.00 0.00 0.00 42 1013.8
20260506093523 65 110 6.0 12.0 0.00 0.00 0.00 47 1013.9
20260506093024 65 113 6.0 12.0 0.00 0.00 0.00 50 1014.0
20260506092524 65 68 4.0 10.0 0.00 0.00 0.00 52 1014.2
20260506092025 64 94 6.0 10.0 0.00 0.00 0.00 52 1014.0
20260506091524 64 73 4.0 10.0 0.00 0.00 0.00 51 1014.0
20260506091024 62 124 4.0 9.0 0.00 0.00 0.00 54 1014.0
20260506090523 61 130 3.0 7.0 0.00 0.00 0.00 67 1014.0
20260506090023 60 99 3.0 7.0 0.00 0.00 0.00 68 1014.2
20260506085523 59 135 5.0 7.0 0.00 0.00 0.00 69 1014.2
20260506085023 58 113 5.0 9.0 0.00 0.00 0.00 71 1014.3
20260506084523 58 130 6.0 10.0 0.00 0.00 0.00 72 1014.3
20260506084023 57 120 6.0 10.0 0.00 0.00 0.00 71 1014.3
20260506083523 56 113 7.0 9.0 0.00 0.00 0.00 73 1014.4
20260506083023 56 135 4.0 7.0 0.00 0.00 0.00 72 1014.5
20260506082523 55 120 5.0 7.0 0.00 0.00 0.00 72 1014.5
20260506082022 56 118 4.0 6.0 0.00 0.00 0.00 73 1014.4
20260506081522 55 114 4.0 6.0 0.00 0.00 0.00 73 1014.6
20260506081022 54 99 4.0 6.0 0.00 0.00 0.00 73 1014.6
20260506080523 54 109 4.0 7.0 0.00 0.00 0.00 74 1014.7
20260506073522 53 106 3.0 5.0 0.00 0.00 0.00 74 1015.0
20260506073021 53 121 3.0 4.0 0.00 0.00 0.00 75 1015.0
20260506072521 52 117 2.0 5.0 0.00 0.00 0.00 75 1015.0
20260506072021 52 103 3.0 5.0 0.00 0.00 0.00 75 1015.0
20260506071522 52 141 3.0 5.0 0.00 0.00 0.00 75 1015.2
20260506071021 52 135 3.0 6.0 0.00 0.00 0.00 75 1015.3
20260506070523 52 125 2.0 6.0 0.00 0.00 0.00 74 1015.3
20260506062020 48 154 0.0 0.0 0.00 0.00 0.00 49 1016.0
20260506061520 46 268 0.0 0.0 0.00 0.00 0.00 45 1016.1
20260506061020 45 269 0.0 0.0 0.00 0.00 0.00 41 1016.2
20260506060519 45 268 0.0 0.0 0.00 0.00 0.00 34 1016.3
20260506051018 43 127 1.0 4.0 0.00 0.00 0.00 35 1016.6
20260506050518 44 113 2.0 4.0 0.00 0.00 0.00 39 1016.6
20260506045018 43 266 0.0 1.0 0.00 0.00 0.00 27 1016.9
20260506044517 43 266 0.0 1.0 0.00 0.00 0.00 24 1017.1
20260506044017 42 266 0.0 1.0 0.00 0.00 0.00 22 1017.0
20260506043518 42 266 0.0 1.0 0.00 0.00 0.00 22 1016.9
20260506043017 42 266 0.0 1.0 0.00 0.00 0.00 25 1016.9
20260506042517 42 266 0.0 2.0 0.00 0.00 0.00 30 1016.7
20260506042017 42 265 2.0 2.0 0.00 0.00 0.00 33 1016.7
20260506041517 42 319 0.0 0.0 0.00 0.00 0.00 26 1016.7
20260506041017 42 319 0.0 1.0 0.00 0.00 0.00 17 1016.7
20260506040517 41 320 0.0 1.0 0.00 0.00 0.00 19 1016.7
20260506040017 41 355 0.0 1.0 0.00 0.00 0.00 24 1016.7
20260506035516 41 299 0.0 1.0 0.00 0.00 0.00 31 1016.7
20260506035017 41 283 1.0 1.0 0.00 0.00 0.00 30 1016.6
20260506034516 41 92 0.0 0.0 0.00 0.00 0.00 40 1016.7
20260506034016 41 92 0.0 0.0 0.00 0.00 0.00 47 1016.9
20260506033516 41 92 0.0 2.0 0.00 0.00 0.00 53 1017.0
20260506033016 42 92 1.0 2.0 0.00 0.00 0.00 59 1017.1
20260506032516 43 152 0.0 2.0 0.00 0.00 0.00 52 1017.1
20260506032016 44 45 0.0 0.0 0.00 0.00 0.00 43 1017.3
20260506031515 43 47 0.0 3.0 0.00 0.00 0.00 44 1017.4
20260506031016 43 258 0.0 5.0 0.00 0.00 0.00 47 1017.4
20260506030516 43 285 2.0 5.0 0.00 0.00 0.00 49 1017.2
20260506030015 43 278 4.0 5.0 0.00 0.00 0.00 46 1017.2
20260506025516 43 281 3.0 4.0 0.00 0.00 0.00 52 1017.3
20260506025016 43 286 2.0 3.0 0.00 0.00 0.00 64 1017.4
20260506024517 44 86 0.0 2.0 0.00 0.00 0.00 52 1017.3
20260506024015 43 87 0.0 2.0 0.00 0.00 0.00 50 1017.3
20260506023515 43 71 0.0 2.0 0.00 0.00 0.00 62 1017.5
20260506023015 44 120 0.0 2.0 0.00 0.00 0.00 56 1017.4
20260506022515 44 321 0.0 3.0 0.00 0.00 0.00 55 1017.6
20260506022014 43 278 0.0 3.0 0.00 0.00 0.00 61 1017.8
20260506021514 44 269 0.0 2.0 0.00 0.00 0.00 59 1017.6
20260506021014 44 334 0.0 1.0 0.00 0.00 0.00 57 1017.4
20260506020514 43 289 0.0 1.0 0.00 0.00 0.00 57 1017.3
20260506020014 43 289 0.0 1.0 0.00 0.00 0.00 61 1017.3
20260506015515 43 290 0.0 1.0 0.00 0.00 0.00 67 1017.2
20260506015014 44 319 0.0 0.0 0.00 0.00 0.00 65 1017.3
20260506014514 44 319 0.0 1.0 0.00 0.00 0.00 64 1017.3
20260506014012 44 313 0.0 2.0 0.00 0.00 0.00 64 1017.3
20260506013513 44 295 1.0 2.0 0.00 0.00 0.00 63 1017.5
20260506013012 44 295 1.0 2.0 0.00 0.00 0.00 64 1017.5
20260506012509 44 293 1.0 1.0 0.00 0.00 0.00 66 1017.5
20260506012007 44 293 0.0 1.0 0.00 0.00 0.00 66 1017.4
20260506011506 43 118 0.0 0.0 0.00 0.00 0.00 68 1017.3
20260506011006 44 120 0.0 0.0 0.00 0.00 0.00 68 1017.4
20260506010506 44 120 0.0 0.0 0.00 0.00 0.00 67 1017.3
20260506010007 44 120 0.0 0.0 0.00 0.00 0.00 68 1017.2
20260506005507 44 120 0.0 0.0 0.00 0.00 0.00 69 1017.2
20260506005006 44 120 0.0 2.0 0.00 0.00 0.00 71 1017.1
20260506004506 44 120 0.0 2.0 0.00 0.00 0.00 74 1017.1
20260506004007 45 85 0.0 1.0 0.00 0.00 0.00 75 1017.1
20260506003506 46 127 0.0 2.0 0.00 0.00 0.00 74 1017.1
20260506003006 46 327 0.0 2.0 0.00 0.00 0.00 74 1017.1
20260506002506 46 293 1.0 2.0 0.00 0.00 0.00 74 1017.1
20260506002007 46 290 0.0 2.0 0.00 0.00 0.00 74 1017.1
20260506001507 46 300 0.0 2.0 0.00 0.00 0.00 74 1017.1
20260506001007 46 296 0.0 2.0 0.00 0.00 0.00 74 1017.1
20260506000506 46 14 0.0 2.0 0.00 0.00 0.00 73 1017.2
20260506000007 45 6 0.0 2.0 0.00 0.00 0.00 74 1017.2
20260505235506 46 283 0.0 3.0 0.00 0.00 0.00 74 1017.1
20260505235006 46 309 2.0 3.0 0.00 0.00 0.00 75 1017.3
20260505234506 46 296 0.0 1.0 0.00 0.00 0.00 75 1017.3
20260505234006 46 310 0.0 1.0 0.00 0.00 0.00 75 1017.3
20260505233509 46 24 0.0 3.0 0.00 0.00 0.00 75 1017.4
20260505233006 46 116 0.0 3.0 0.00 0.00 0.00 75 1017.4
20260505232506 47 97 1.0 3.0 0.00 0.00 0.00 74 1017.3
20260505232007 48 69 0.0 1.0 0.00 0.00 0.00 74 1017.2
20260505231506 48 310 0.0 1.0 0.00 0.00 0.00 75 1017.2
20260505231006 48 313 0.0 1.0 0.00 0.00 0.00 75 1017.3
20260505230507 47 300 0.0 3.0 0.00 0.00 0.00 75 1017.2
20260505230007 47 298 1.0 3.0 0.00 0.00 0.00 75 1017.2
20260505225506 47 292 0.0 3.0 0.00 0.00 0.00 75 1017.2
20260505225006 47 295 1.0 2.0 0.00 0.00 0.00 75 1017.1
20260505224506 48 288 0.0 1.0 0.00 0.00 0.00 75 1017.1
20260505224006 48 292 0.0 1.0 0.00 0.00 0.00 74 1017.1
20260505223507 48 316 0.0 0.0 0.00 0.00 0.00 74 1017.0
20260505223006 48 316 0.0 0.0 0.00 0.00 0.00 74 1017.0
20260505222506 48 278 0.0 0.0 0.00 0.00 0.00 74 1017.0
20260505222006 49 307 0.0 2.0 0.00 0.00 0.00 74 1017.0
20260505221506 48 298 0.0 4.0 0.00 0.00 0.00 75 1017.0
20260505221007 47 299 0.0 4.0 0.00 0.00 0.00 75 1016.9
20260505220507 48 292 1.0 3.0 0.00 0.00 0.00 74 1016.9
20260505220008 49 288 2.0 3.0 0.00 0.00 0.00 73 1016.9
20260505215506 49 274 0.0 4.0 0.00 0.00 0.00 73 1016.7
20260505215007 49 289 1.0 6.0 0.00 0.00 0.00 73 1016.7
20260505214506 49 286 4.0 6.0 0.00 0.00 0.00 73 1016.7
20260505214006 49 278 0.0 4.0 0.00 0.00 0.00 73 1016.6
20260505213506 49 314 2.0 4.0 0.00 0.00 0.00 73 1016.9
20260505213007 49 336 0.0 2.0 0.00 0.00 0.00 73 1016.9
20260505212506 49 327 0.0 2.0 0.00 0.00 0.00 72 1016.7
20260505212006 50 262 0.0 2.0 0.00 0.00 0.00 72 1016.6
20260505211505 50 348 0.0 3.0 0.00 0.00 0.00 72 1016.5
20260505211006 50 331 2.0 3.0 0.00 0.00 0.00 71 1016.5
20260505210507 50 6 0.0 3.0 0.00 0.00 0.00 72 1016.5
20260505210007 50 23 2.0 3.0 0.00 0.00 0.00 72 1016.6
20260505205506 51 213 0.0 0.0 0.00 0.00 0.00 70 1016.5
20260505205006 51 210 0.0 2.0 0.00 0.00 0.00 69 1016.5
20260505204506 52 165 0.0 2.0 0.00 0.00 0.00 68 1016.4
20260505204007 53 97 0.0 5.0 0.00 0.00 0.00 67 1016.3
20260505203506 52 296 1.0 5.0 0.00 0.00 0.00 68 1016.2
20260505203006 52 285 1.0 2.0 0.00 0.00 0.00 67 1016.1
20260505202508 53 313 0.0 4.0 0.00 0.00 0.00 66 1016.1
20260505202006 53 0 2.0 4.0 0.00 0.00 0.00 67 1016.1
20260505201507 53 292 0.0 4.0 0.00 0.00 0.00 66 1016.0
20260505201006 54 310 1.0 4.0 0.00 0.00 0.00 66 1015.9
20260505200507 53 309 1.0 4.0 0.00 0.00 0.00 67 1015.9
20260505200007 53 299 1.0 3.0 0.00 0.00 0.00 68 1015.9
20260505195507 53 300 0.0 4.0 0.00 0.00 0.00 68 1015.8
20260505195007 53 295 3.0 4.0 0.00 0.00 0.00 68 1015.8
20260505194506 53 303 1.0 4.0 0.00 0.00 0.00 69 1015.7
20260505194007 53 265 1.0 3.0 0.00 0.00 0.00 66 1015.6
20260505193507 54 314 0.0 3.0 0.00 0.00 0.00 66 1015.4
20260505193007 54 307 1.0 3.0 0.00 0.00 0.00 64 1015.3
20260505192508 55 312 0.0 1.0 0.00 0.00 0.00 63 1015.2
20260505192006 56 298 0.0 4.0 0.00 0.00 0.00 62 1015.1
20260505191506 56 316 1.0 5.0 0.00 0.00 0.00 62 1015.2
20260505191005 56 10 1.0 5.0 0.00 0.00 0.00 63 1015.1
20260505190506 56 286 3.0 5.0 0.00 0.00 0.00 62 1015.0
20260505190006 56 314 0.0 7.0 0.00 0.00 0.00 62 1014.9
20260505185506 56 306 2.0 7.0 0.00 0.00 0.00 62 1015.0
20260505185005 57 290 2.0 4.0 0.00 0.00 0.00 60 1014.8
20260505184505 57 314 0.0 3.0 0.00 0.00 0.00 60 1014.8
20260505184006 57 309 1.0 3.0 0.00 0.00 0.00 61 1014.7
20260505183506 57 6 1.0 5.0 0.00 0.00 0.00 62 1014.6
20260505183005 57 283 2.0 5.0 0.00 0.00 0.00 60 1014.5
20260505182505 58 276 1.0 5.0 0.00 0.00 0.00 57 1014.7
20260505182005 58 302 0.0 4.0 0.00 0.00 0.00 59 1014.5
20260505181504 60 296 1.0 4.0 0.00 0.00 0.00 56 1014.4
20260505181005 60 307 1.0 3.0 0.00 0.00 0.00 55 1014.4
20260505180505 60 309 1.0 3.0 0.00 0.00 0.00 54 1014.3
20260505180007 61 305 1.0 3.0 0.00 0.00 0.00 53 1014.3
20260505175504 61 302 2.0 3.0 0.00 0.00 0.00 53 1014.3
20260505175004 62 302 1.0 3.0 0.00 0.00 0.00 52 1014.3
20260505174504 62 329 0.0 3.0 0.00 0.00 0.00 51 1014.3
20260505174004 63 274 1.0 3.0 0.00 0.00 0.00 50 1014.2
20260505173503 63 299 0.0 4.0 0.00 0.00 0.00 50 1014.0
20260505173003 64 34 1.0 4.0 0.00 0.00 0.00 49 1014.2
20260505172504 64 324 1.0 4.0 0.00 0.00 0.00 49 1014.3
20260505172003 65 300 2.0 4.0 0.00 0.00 0.00 46 1014.0
20260505171504 66 305 2.0 4.0 0.00 0.00 0.00 46 1014.0
20260505171004 67 299 1.0 4.0 0.00 0.00 0.00 46 1014.3
20260505170503 67 327 0.0 6.0 0.00 0.00 0.00 45 1014.2
20260505170003 66 97 1.0 9.0 0.00 0.00 0.00 45 1014.2
20260505165503 66 97 2.0 9.0 0.00 0.00 0.00 45 1014.2
20260505165003 66 106 4.0 7.0 0.00 0.00 0.00 46 1014.3
20260505164502 66 134 6.0 7.0 0.00 0.00 0.00 43 1014.2
20260505164003 66 151 4.0 6.0 0.00 0.00 0.00 44 1014.3
20260505163503 67 114 2.0 7.0 0.00 0.00 0.00 45 1014.3
20260505163003 66 82 5.0 9.0 0.00 0.00 0.00 46 1014.4
20260505162502 66 113 5.0 9.0 0.00 0.00 0.00 46 1014.5
20260505162002 66 107 4.0 9.0 0.00 0.00 0.00 47 1014.5
20260505161502 66 135 4.0 9.0 0.00 0.00 0.00 47 1014.7
20260505161003 66 130 6.0 9.0 0.00 0.00 0.00 45 1014.7
20260505160501 66 124 4.0 11.0 0.00 0.00 0.00 46 1014.8
20260505153002 66 113 5.0 7.0 0.00 0.00 0.00 47 1014.8
20260505152501 66 71 4.0 5.0 0.00 0.00 0.00 46 1014.9
20260505152001 66 241 0.0 3.0 0.00 0.00 0.00 44 1014.9
20260505151500 66 295 0.0 6.0 0.00 0.00 0.00 44 1015.0
20260505151000 66 6 1.0 9.0 0.00 0.00 0.00 42 1014.9
20260505150501 66 282 4.0 10.0 0.00 0.00 0.00 43 1014.9
20260505140500 68 199 1.0 6.0 0.00 0.00 0.00 45 1014.4
20260505124958 70 228 2.0 5.0 0.00 0.00 0.00 40 1014.6
20260505124458 69 226 0.0 5.0 0.00 0.00 0.00 40 1014.5
20260505123958 69 100 3.0 11.0 0.00 0.00 0.00 40 1014.4
20260505123458 69 114 7.0 11.0 0.00 0.00 0.00 40 1014.6
20260505122958 69 75 5.0 9.0 0.00 0.00 0.00 39 1014.5
20260505122458 70 121 5.0 7.0 0.00 0.00 0.00 42 1014.4
20260505121957 70 111 4.0 10.0 0.00 0.00 0.00 38 1014.5
20260505121457 70 168 7.0 10.0 0.00 0.00 0.00 38 1014.5
20260505120957 71 118 1.0 10.0 0.00 0.00 0.00 35 1014.5
20260505120457 70 182 2.0 10.0 0.00 0.00 0.00 42 1014.6
20260505115957 70 94 7.0 10.0 0.00 0.00 0.00 38 1014.4
20260505115457 70 128 6.0 9.0 0.00 0.00 0.00 37 1014.5
20260505114957 71 114 5.0 10.0 0.00 0.00 0.00 35 1014.5
20260505114455 71 140 5.0 13.0 0.00 0.00 0.00 36 1014.6
20260505113955 72 127 6.0 13.0 0.00 0.00 0.00 34 1014.6
20260505113455 72 82 6.0 12.0 0.00 0.00 0.00 36 1014.5
20260505112956 73 99 6.0 11.0 0.00 0.00 0.00 35 1014.5
20260505112457 73 161 6.0 11.0 0.00 0.00 0.00 30 1014.6
20260505111956 72 116 6.0 14.0 0.00 0.00 0.00 33 1014.6
20260505111456 72 107 3.0 14.0 0.00 0.00 0.00 33 1014.7
20260505110955 72 109 3.0 12.0 0.00 0.00 0.00 33 1014.7
20260505110456 72 79 6.0 11.0 0.00 0.00 0.00 34 1014.7